Terminal Aerodrome Forecast
Issued by NWS Duluth, MN

Home | Current Version | Previous Version | Text Only | Print | Product List | Glossary On
Versions: 1 2 3 4 5 6 7 8 9 10 11 12 13 14 15 16 17 18 19 20 21 22 23 24 25 26 27 28 29 30 31 32 33
052
FTUS43 KDLH 252339
TAFDLH
TAF
KDLH 252339Z 2600/2624 26013G19KT P6SM VCSH SCT015 BKN040
      TEMPO 2600/2601 25013KT
     FM260100 27015G25KT P6SM -SHRA SCT009 BKN013 OVC018
     FM261400 29020G28KT P6SM VCSH SCT015 BKN050
     FM261900 29020G28KT P6SM -RA OVC022=

USA.gov is the U.S. government's official web portal to all federal, state and local government web resources and services.